DW8633 Weather Reports


Display with metric or nautical units.
time (UTC)temp
F
wind
direction
speed
MPH
gust
MPH
rain 1hr
in
rain 24hr
in
rain mn
in
humidity
%
barometer
mb
20260509103058 38 360 0.0 0.0 0.00 0.00 0.00 83 931.4
20260509102547 38 360 0.0 0.0 0.00 0.00 0.00 83 931.5
20260509102047 38 360 0.0 0.0 0.00 0.00 0.00 83 931.3
20260509101559 38 360 0.0 7.0 0.00 0.00 0.00 84 931.3
20260509101045 38 360 3.0 7.0 0.00 0.00 0.00 84 931.3
20260509100544 38 360 4.0 6.0 0.00 0.00 0.00 83 931.3
20260509100043 38 360 0.0 2.0 0.00 0.00 0.00 82 931.1
20260509095542 38 360 0.0 2.0 0.00 0.00 0.00 82 931.0
20260509095040 39 360 0.0 2.0 0.00 0.00 0.00 82 931.0
20260509094545 39 360 0.0 4.0 0.00 0.00 0.00 82 931.1
20260509093539 39 360 0.0 2.0 0.00 0.00 0.00 82 930.9
20260509093039 39 360 1.0 2.0 0.00 0.00 0.00 82 930.8
20260509092539 39 360 0.0 4.0 0.00 0.00 0.00 81 930.8
20260509092037 39 360 1.0 4.0 0.00 0.00 0.00 81 930.6
20260509091536 39 360 2.0 3.0 0.00 0.00 0.00 80 930.5
20260509091037 40 360 2.0 3.0 0.00 0.00 0.00 78 930.4
20260509090536 41 360 0.0 5.0 0.00 0.00 0.00 76 930.3
20260509090039 42 360 1.0 5.0 0.00 0.00 0.00 77 930.3
20260509085530 42 360 1.0 4.0 0.00 0.00 0.00 76 930.3
20260509085029 43 360 1.0 2.0 0.00 0.00 0.00 75 930.1
20260509084527 44 360 0.0 2.0 0.00 0.00 0.00 75 930.1
20260509083527 44 360 0.0 1.0 0.00 0.00 0.00 77 929.9
20260509083035 44 360 0.0 2.0 0.00 0.00 0.00 77 929.9
20260509082525 44 360 0.0 4.0 0.00 0.00 0.00 77 929.8
20260509082025 44 360 0.0 4.0 0.00 0.00 0.00 77 929.7
20260509081524 44 360 1.0 4.0 0.00 0.00 0.00 77 929.6
20260509081023 44 360 2.0 4.0 0.00 0.00 0.00 75 929.5
20260509080521 44 360 1.0 3.0 0.00 0.00 0.00 75 929.4
20260509080022 45 360 1.0 5.0 0.00 0.00 0.00 74 929.4
20260509075519 45 360 2.0 7.0 0.00 0.00 0.00 74 929.3
20260509075020 46 360 4.0 7.0 0.00 0.00 0.00 74 929.2
20260509074518 46 360 3.0 7.0 0.00 0.00 0.00 74 929.1
20260509074116 46 360 4.0 7.0 0.00 0.00 0.00 73 929.1
20260509073516 46 360 4.0 6.0 0.00 0.00 0.00 73 929.1
20260509073023 47 360 3.0 6.0 0.00 0.00 0.00 73 929.0
20260509072514 47 360 2.0 6.0 0.00 0.00 0.00 74 928.9
20260509072013 47 360 2.0 6.0 0.00 0.00 0.00 75 929.0
20260509071514 47 360 0.0 6.0 0.00 0.00 0.00 77 929.0
20260509071011 47 360 2.0 6.0 0.00 0.00 0.00 77 929.0
20260509070511 48 360 2.0 6.0 0.00 0.00 0.00 77 928.9
20260509070010 48 360 3.0 8.0 0.00 0.00 0.00 77 928.9
20260509065508 48 360 4.0 9.0 0.00 0.00 0.00 77 928.8
20260509065008 49 360 5.0 10.0 0.00 0.00 0.00 77 928.8
20260509064507 49 360 7.0 10.0 0.00 0.00 0.00 77 928.8
20260509063509 50 360 4.0 11.0 0.00 0.00 0.00 75 928.6
20260509063013 50 360 6.0 13.0 0.00 0.00 0.00 75 928.6
20260509062504 50 360 7.0 12.0 0.00 0.00 0.00 74 928.6
20260509062005 50 360 4.0 9.0 0.00 0.00 0.00 74 928.5
20260509061501 49 360 4.0 6.0 0.00 0.00 0.00 74 928.4
20260509061100 49 360 1.0 3.0 0.00 0.00 0.00 73 928.4
20260509060600 49 360 1.0 3.0 0.00 0.00 0.00 73 928.2
20260509060501 49 360 1.0 3.0 0.00 0.00 0.00 73 928.1
20260509060110 49 360 1.0 2.0 0.00 0.00 0.00 73 928.1
20260509055600 49 360 0.0 2.0 0.00 0.00 0.00 72 928.1
20260509055200 49 360 0.0 4.0 0.00 0.00 0.00 72 927.9
20260509054611 49 360 1.0 5.0 0.00 0.00 0.00 71 927.8
20260509054159 50 360 3.0 7.0 0.00 0.00 0.00 70 927.7
20260509053558 50 360 4.0 8.0 0.00 0.00 0.00 70 927.6
20260509053130 51 360 5.0 8.0 0.00 0.00 0.00 69 927.5
20260509052558 51 360 5.0 10.0 0.00 0.00 0.00 68 927.5
20260509052056 52 360 7.0 11.0 0.00 0.00 0.00 67 927.4
20260509051557 52 360 7.0 11.0 0.00 0.00 0.00 67 927.3
20260509051056 52 360 8.0 12.0 0.00 0.00 0.00 67 927.4
20260509050558 52 360 8.0 12.0 0.00 0.00 0.00 67 927.4
20260509050056 52 360 9.0 12.0 0.00 0.00 0.00 67 927.5
20260509045557 52 360 7.0 12.0 0.00 0.00 0.00 66 927.2
20260509045055 52 360 9.0 11.0 0.00 0.00 0.00 66 927.2
20260509044640 52 360 8.0 12.0 0.00 0.00 0.00 65 927.3
20260509044156 53 360 8.0 12.0 0.00 0.00 0.00 65 927.3
20260509043556 53 360 7.0 12.0 0.00 0.00 0.00 65 927.2
20260509043138 52 360 8.0 13.0 0.00 0.00 0.00 65 927.1
20260509042555 53 360 8.0 15.0 0.00 0.00 0.00 64 927.1
20260509042057 53 360 9.0 15.0 0.00 0.00 0.00 63 927.0
20260509041555 53 360 10.0 16.0 0.00 0.00 0.00 63 927.0
20260509041055 53 360 10.0 18.0 0.00 0.00 0.00 63 927.0
20260509040558 53 360 11.0 18.0 0.00 0.00 0.00 63 926.8
20260509040057 53 360 9.0 18.0 0.00 0.00 0.00 63 926.8
20260509035558 54 360 11.0 19.0 0.00 0.00 0.00 63 926.7
20260509035055 54 360 12.0 19.0 0.00 0.00 0.00 63 926.7
20260509034555 54 360 13.0 16.0 0.00 0.00 0.00 64 926.5
20260509034154 54 360 10.0 21.0 0.00 0.00 0.00 65 926.8
20260509033556 54 360 12.0 21.0 0.00 0.00 0.00 65 926.6
20260509033054 55 360 13.0 20.0 0.00 0.00 0.00 64 926.2
20260509032553 55 360 11.0 19.0 0.00 0.00 0.00 63 926.6
20260509032052 56 360 11.0 22.0 0.00 0.00 0.00 62 926.7
20260509031559 57 360 15.0 22.0 0.00 0.00 0.00 58 926.3
20260509031053 57 71 5.0 10.0 0.00 0.00 0.00 56 926.4
20260509030553 57 360 5.0 10.0 0.00 0.00 0.00 57 926.6
20260509030110 57 360 3.0 8.0 0.00 0.00 0.00 57 926.5
20260509025551 57 360 3.0 7.0 0.00 0.00 0.00 57 926.4
20260509025053 57 360 4.0 8.0 0.00 0.00 0.00 56 926.3
20260509024552 57 360 4.0 8.0 0.00 0.00 0.00 56 926.3
20260509024052 58 360 4.0 9.0 0.00 0.00 0.00 56 926.2
20260509023559 58 360 4.0 9.0 0.00 0.00 0.00 56 926.0
20260509023057 58 27 6.0 9.0 0.00 0.00 0.00 56 926.0
20260509022554 58 360 6.0 9.0 0.00 0.00 0.00 56 926.0
20260509022058 58 360 4.0 11.0 0.00 0.00 0.00 56 925.9
20260509021554 59 360 6.0 12.0 0.00 0.00 0.00 55 925.7
20260509021056 59 360 6.0 12.0 0.00 0.00 0.00 55 925.5
20260509020553 59 360 6.0 13.0 0.00 0.00 0.00 55 925.5
20260509020104 59 360 6.0 15.0 0.00 0.00 0.00 55 925.6
20260509015555 60 360 7.0 21.0 0.00 0.00 0.00 55 925.6
20260509015053 60 360 9.0 20.0 0.00 0.00 0.00 54 925.5
20260509014555 60 360 10.0 16.0 0.00 0.00 0.00 53 925.5
20260509014152 60 360 9.0 18.0 0.00 0.00 0.00 57 925.5
20260509013552 60 360 8.0 18.0 0.00 0.00 0.00 56 925.4
20260509013058 61 360 10.0 18.0 0.00 0.00 0.00 57 925.4
20260509012552 60 360 9.0 15.0 0.00 0.00 0.00 55 925.6
20260509012051 60 360 10.0 15.0 0.00 0.00 0.00 55 925.6
20260509011555 60 360 8.0 14.0 0.00 0.00 0.00 54 925.1
20260509011050 61 360 8.0 13.0 0.00 0.00 0.00 53 925.0
20260509010551 61 360 8.0 13.0 0.00 0.00 0.00 51 924.6
20260509010051 61 360 8.0 14.0 0.00 0.00 0.00 51 924.5
20260509005552 62 360 9.0 15.0 0.00 0.00 0.00 50 924.3
20260509005051 63 47 8.0 15.0 0.00 0.00 0.00 48 924.3
20260509004557 65 65 9.0 14.0 0.00 0.00 0.00 44 924.3
20260509004149 65 47 6.0 20.0 0.00 0.00 0.00 42 924.3
20260509003547 65 19 6.0 20.0 0.00 0.00 0.00 41 924.4
20260509003054 67 19 12.0 23.0 0.00 0.00 0.00 37 924.5
20260509002546 67 360 14.0 27.0 0.00 0.00 0.00 38 924.8
20260509002046 67 9 9.0 37.0 0.00 0.00 0.00 35 925.2
20260509001546 68 314 19.0 37.0 0.00 0.00 0.00 32 925.3
20260509001045 68 320 11.0 15.0 0.00 0.00 0.00 32 924.9
20260509000547 68 329 10.0 15.0 0.00 0.00 0.00 32 924.7
20260509000046 69 324 9.0 12.0 0.00 0.00 0.00 32 924.6
20260508235545 69 332 8.0 12.0 0.00 0.00 0.00 32 924.3
20260508235045 70 317 8.0 13.0 0.00 0.00 0.00 31 924.3
20260508234545 71 311 10.0 15.0 0.00 0.00 0.00 30 924.4
20260508234147 71 271 11.0 20.0 0.00 0.00 0.00 29 924.6
20260508233544 71 286 12.0 20.0 0.00 0.00 0.00 29 924.7
20260508233044 71 330 13.0 20.0 0.00 0.00 0.00 30 924.9
20260508232546 71 295 16.0 23.0 0.00 0.00 0.00 30 924.8
20260508232043 71 319 16.0 23.0 0.00 0.00 0.00 29 924.8
20260508231542 71 293 16.0 21.0 0.00 0.00 0.00 29 924.9
20260508231042 71 313 10.0 22.0 0.00 0.00 0.00 30 924.9
20260508230545 71 330 13.0 22.0 0.00 0.00 0.00 30 925.0
20260508230041 70 305 13.0 20.0 0.00 0.00 0.00 30 925.1
20260508225541 70 321 14.0 20.0 0.00 0.00 0.00 32 925.1
20260508225044 69 333 12.0 29.0 0.00 0.00 0.00 32 925.3
20260508224552 68 330 18.0 24.0 0.00 0.00 0.00 32 925.3
20260508223538 68 344 14.0 20.0 0.00 0.00 0.00 34 925.5
20260508223047 68 348 14.0 22.0 0.00 0.00 0.00 33 925.6
20260508222537 68 5 16.0 27.0 0.00 0.00 0.00 31 925.7
20260508222036 70 355 20.0 27.0 0.00 0.00 0.00 31 925.7
20260508221537 69 315 15.0 27.0 0.00 0.00 0.00 32 925.8
20260508221036 69 344 20.0 27.0 0.00 0.00 0.00 31 925.9
20260508220536 70 298 16.0 25.0 0.00 0.00 0.00 27 925.9
20260508220044 71 329 16.0 25.0 0.00 0.00 0.00 26 925.8
20260508215535 72 311 16.0 26.0 0.00 0.00 0.00 25 925.8
20260508215035 71 306 19.0 26.0 0.00 0.00 0.00 25 926.0
20260508214535 71 316 21.0 25.0 0.00 0.00 0.00 25 925.8
20260508214136 71 291 19.0 26.0 0.00 0.00 0.00 24 925.9
20260508213534 71 303 18.0 26.0 0.00 0.00 0.00 25 926.0
20260508213034 72 325 19.0 27.0 0.00 0.00 0.00 24 926.0
20260508212532 72 263 20.0 30.0 0.00 0.00 0.00 25 925.9
20260508212035 72 327 21.0 30.0 0.00 0.00 0.00 25 925.9
20260508211632 72 304 13.0 26.0 0.00 0.00 0.00 25 926.2
20260508211031 71 299 19.0 26.0 0.00 0.00 0.00 24 926.2
20260508210532 70 289 20.0 27.0 0.00 0.00 0.00 26 926.2
20260508210033 70 290 15.0 27.0 0.00 0.00 0.00 27 926.3
20260508205534 71 330 13.0 26.0 0.00 0.00 0.00 26 926.4
20260508205033 71 319 18.0 26.0 0.00 0.00 0.00 26 926.4
20260508204533 71 320 18.0 25.0 0.00 0.00 0.00 26 926.4
20260508204134 71 303 18.0 29.0 0.00 0.00 0.00 26 926.4
20260508203531 72 290 20.0 29.0 0.00 0.00 0.00 26 926.6
20260508203031 71 304 20.0 27.0 0.00 0.00 0.00 26 926.6
20260508202531 71 325 21.0 27.0 0.00 0.00 0.00 26 926.7
20260508202034 71 317 14.0 24.0 0.00 0.00 0.00 27 926.7
20260508201532 71 286 19.0 23.0 0.00 0.00 0.00 26 926.7
20260508201032 70 269 14.0 21.0 0.00 0.00 0.00 27 926.8
20260508200530 69 294 12.0 25.0 0.00 0.00 0.00 27 926.9
20260508200032 70 289 16.0 25.0 0.00 0.00 0.00 25 927.0
20260508195532 71 294 14.0 24.0 0.00 0.00 0.00 25 927.0
20260508195029 73 288 15.0 24.0 0.00 0.00 0.00 25 927.1
20260508194536 72 315 13.0 24.0 0.00 0.00 0.00 24 927.1
20260508194128 71 327 14.0 26.0 0.00 0.00 0.00 24 927.1
20260508193527 71 302 14.0 26.0 0.00 0.00 0.00 25 927.2
20260508193026 71 304 17.0 26.0 0.00 0.00 0.00 25 927.3
20260508192528 71 307 9.0 21.0 0.00 0.00 0.00 26 927.3
20260508192026 71 257 13.0 21.0 0.00 0.00 0.00 26 927.4
20260508191532 71 270 12.0 23.0 0.00 0.00 0.00 27 927.6
20260508191024 70 295 10.0 22.0 0.00 0.00 0.00 27 927.5
20260508190522 69 277 11.0 22.0 0.00 0.00 0.00 27 927.7
20260508190024 69 259 11.0 18.0 0.00 0.00 0.00 27 927.7
20260508185523 69 308 11.0 23.0 0.00 0.00 0.00 28 927.7
20260508185023 70 331 19.0 23.0 0.00 0.00 0.00 26 927.8
20260508184524 69 279 12.0 21.0 0.00 0.00 0.00 27 927.9
20260508184122 69 297 12.0 18.0 0.00 0.00 0.00 27 928.0
20260508183522 69 271 13.0 18.0 0.00 0.00 0.00 28 928.1
20260508183028 69 282 8.0 12.0 0.00 0.00 0.00 27 928.2
20260508182621 68 273 6.0 21.0 0.00 0.00 0.00 28 928.2
20260508182020 68 332 10.0 21.0 0.00 0.00 0.00 27 928.4
20260508181521 68 317 11.0 19.0 0.00 0.00 0.00 28 928.4
20260508181021 68 311 12.0 19.0 0.00 0.00 0.00 27 928.5
20260508180520 68 257 9.0 14.0 0.00 0.00 0.00 29 928.6
20260508180022 68 290 10.0 19.0 0.00 0.00 0.00 28 928.7
20260508175519 67 279 12.0 19.0 0.00 0.00 0.00 30 928.8
20260508175019 67 298 12.0 19.0 0.00 0.00 0.00 27 928.9
20260508174520 67 275 12.0 18.0 0.00 0.00 0.00 28 929.0
20260508174119 66 292 8.0 20.0 0.00 0.00 0.00 28 929.1
20260508173519 66 290 10.0 20.0 0.00 0.00 0.00 28 929.1
20260508173017 67 262 14.0 20.0 0.00 0.00 0.00 28 929.2
20260508172518 66 296 6.0 15.0 0.00 0.00 0.00 29 929.1
20260508172017 66 307 9.0 15.0 0.00 0.00 0.00 30 929.2
20260508171517 66 265 8.0 13.0 0.00 0.00 0.00 29 929.2
20260508171016 66 296 7.0 14.0 0.00 0.00 0.00 29 929.3
20260508170515 66 276 9.0 14.0 0.00 0.00 0.00 31 929.2
20260508170015 66 336 7.0 19.0 0.00 0.00 0.00 30 929.4
20260508165514 66 313 11.0 18.0 0.00 0.00 0.00 30 929.4
20260508165016 66 279 12.0 18.0 0.00 0.00 0.00 30 929.4
20260508164513 65 294 10.0 16.0 0.00 0.00 0.00 31 929.6
20260508164112 64 297 10.0 15.0 0.00 0.00 0.00 32 929.5
20260508163512 64 288 11.0 15.0 0.00 0.00 0.00 31 929.5
20260508163012 64 273 9.0 15.0 0.00 0.00 0.00 33 929.5
20260508162514 64 259 9.0 14.0 0.00 0.00 0.00 32 929.5
20260508162011 64 263 8.0 14.0 0.00 0.00 0.00 33 929.6
20260508161509 63 290 9.0 12.0 0.00 0.00 0.00 33 929.6
20260508161009 63 265 7.0 12.0 0.00 0.00 0.00 35 929.6
20260508160508 62 286 6.0 13.0 0.00 0.00 0.00 34 929.7
20260508160014 62 263 8.0 13.0 0.00 0.00 0.00 34 929.7
20260508155509 62 278 7.0 12.0 0.00 0.00 0.00 35 929.7
20260508155005 61 297 6.0 11.0 0.00 0.00 0.00 35 929.7
20260508154506 61 292 6.0 11.0 0.00 0.00 0.00 36 929.8
20260508154103 60 273 7.0 11.0 0.00 0.00 0.00 36 929.8
20260508153503 60 271 6.0 10.0 0.00 0.00 0.00 35 929.8
20260508153002 60 330 7.0 10.0 0.00 0.00 0.00 37 929.8
20260508152503 59 360 7.0 10.0 0.00 0.00 0.00 37 929.9
20260508152100 59 360 7.0 11.0 0.00 0.00 0.00 38 930.0
20260508151601 59 360 7.0 11.0 0.00 0.00 0.00 40 930.0
20260508151059 58 360 7.0 11.0 0.00 0.00 0.00 40 930.0
20260508150558 58 360 8.0 12.0 0.00 0.00 0.00 41 930.0
20260508150109 57 360 7.0 11.0 0.00 0.00 0.00 43 930.0
20260508145555 57 360 8.0 11.0 0.00 0.00 0.00 42 930.0
20260508145053 56 360 8.0 12.0 0.00 0.00 0.00 44 930.0
20260508144552 56 360 8.0 13.0 0.00 0.00 0.00 45 930.1
20260508144051 55 360 9.0 12.0 0.00 0.00 0.00 47 930.2
20260508143105 54 360 8.0 12.0 0.00 0.00 0.00 50 930.1
20260508142547 53 360 9.0 13.0 0.00 0.00 0.00 50 930.2
20260508142047 52 271 9.0 13.0 0.00 0.00 0.00 52 930.2
20260508141545 52 263 10.0 13.0 0.00 0.00 0.00 54 930.1
20260508141044 51 269 9.0 12.0 0.00 0.00 0.00 56 930.2
20260508140542 51 360 8.0 11.0 0.00 0.00 0.00 58 930.2
20260508140049 50 360 8.0 11.0 0.00 0.00 0.00 59 930.1
20260508135540 50 273 8.0 11.0 0.00 0.00 0.00 60 930.1
20260508135039 49 360 8.0 11.0 0.00 0.00 0.00 61 930.1
20260508134539 49 259 8.0 10.0 0.00 0.00 0.00 62 930.2
20260508134036 48 360 8.0 11.0 0.00 0.00 0.00 63 930.1
20260508133036 47 360 8.0 11.0 0.00 0.00 0.00 65 929.9
20260508132534 46 360 7.0 10.0 0.00 0.00 0.00 66 929.9
20260508132033 46 360 6.0 9.0 0.00 0.00 0.00 68 929.9
20260508131531 45 360 7.0 10.0 0.00 0.00 0.00 69 929.8
20260508131030 44 360 7.0 10.0 0.00 0.00 0.00 70 929.8
20260508130528 43 360 5.0 8.0 0.00 0.00 0.00 72 929.8
20260508130029 43 360 5.0 8.0 0.00 0.00 0.00 73 929.8
20260508125528 42 360 6.0 9.0 0.00 0.00 0.00 74 929.7
20260508125028 41 360 6.0 8.0 0.00 0.00 0.00 75 929.7
20260508124528 41 360 6.0 8.0 0.00 0.00 0.00 76 929.6
20260508124026 40 360 5.0 11.0 0.00 0.00 0.00 77 929.5
20260508123027 39 360 8.0 11.0 0.00 0.00 0.00 78 929.5
20260508122526 38 360 4.0 6.0 0.00 0.00 0.00 80 929.4
20260508122025 37 360 2.0 5.0 0.00 0.00 0.00 79 929.4
20260508121525 36 360 2.0 5.0 0.00 0.00 0.00 79 929.3
20260508121023 36 360 1.0 5.0 0.00 0.00 0.00 79 929.2
20260508120523 36 360 2.0 6.0 0.00 0.00 0.00 78 929.2
20260508120023 36 360 4.0 6.0 0.00 0.00 0.00 78 929.1
20260508115522 36 360 5.0 6.0 0.00 0.00 0.00 77 929.0
20260508115021 36 360 4.0 7.0 0.00 0.00 0.00 77 929.0
20260508114520 37 360 5.0 7.0 0.00 0.00 0.00 77 928.8
20260508114019 37 360 6.0 8.0 0.00 0.00 0.00 77 928.8
20260508113020 37 360 6.0 8.0 0.00 0.00 0.00 76 928.7
20260508112518 38 360 5.0 7.0 0.00 0.00 0.00 75 928.5
20260508112016 39 360 5.0 8.0 0.00 0.00 0.00 75 928.5
20260508111517 39 360 5.0 8.0 0.00 0.00 0.00 75 928.4
20260508111018 39 360 5.0 8.0 0.00 0.00 0.00 76 928.4
20260508110514 39 360 5.0 8.0 0.00 0.00 0.00 76 928.3
20260508110014 39 360 5.0 7.0 0.00 0.00 0.00 75 928.3
20260508105515 39 360 5.0 7.0 0.00 0.00 0.00 75 928.3
20260508105013 40 360 5.0 7.0 0.00 0.00 0.00 76 928.2
20260508104512 40 360 5.0 8.0 0.00 0.00 0.00 77 928.2
20260508104011 40 360 5.0 8.0 0.00 0.00 0.00 79 928.1